Time,TemperatureF,DewpointF,PressureIn,WindDirection,WindDirectionDegrees,WindSpeedMPH,WindSpeedGustMPH,Humidity,HourlyPrecipIn,Conditions,Clouds,dailyrainin,SoftwareType,DateUTC
2013-05-28 00:00:00,-999.0,-99.9,26.59,North,-999,-999.0,-999.0,-999,0.00,,,0.00,weatherlink.com 1.10,2013-05-28 04:00:00,
2013-05-28 00:15:00,-999.0,-99.9,26.59,North,-999,-999.0,-999.0,-999,0.00,,,0.00,weatherlink.com 1.10,2013-05-28 04:15:00,
2013-05-28 00:30:00,-999.0,-99.9,26.59,North,-999,-999.0,-999.0,-999,0.00,,,0.00,weatherlink.com 1.10,2013-05-28 04:30:00,
2013-05-28 00:45:00,-999.0,-99.9,26.59,North,-999,-999.0,-999.0,-999,0.00,,,0.00,weatherlink.com 1.10,2013-05-28 04:45:00,
2013-05-28 01:00:00,-999.0,-99.9,26.59,North,-999,-999.0,-999.0,-999,0.00,,,0.00,weatherlink.com 1.10,2013-05-28 05:00:00,
2013-05-28 01:15:00,-999.0,-99.9,26.59,North,-999,-999.0,-999.0,-999,0.00,,,0.00,weatherlink.com 1.10,2013-05-28 05:15:00,
2013-05-28 01:30:00,-999.0,-99.9,26.59,North,-999,-999.0,-999.0,-999,0.00,,,0.00,weatherlink.com 1.10,2013-05-28 05:30:00,
2013-05-28 01:45:00,-999.0,-99.9,26.58,North,-999,-999.0,-999.0,-999,0.00,,,0.00,weatherlink.com 1.10,2013-05-28 05:45:00,
2013-05-28 02:00:00,-999.0,-99.9,26.58,North,-999,-999.0,-999.0,-999,0.00,,,0.00,weatherlink.com 1.10,2013-05-28 06:00:00,
2013-05-28 02:16:00,-999.0,-99.9,26.57,North,-999,-999.0,-999.0,-999,0.00,,,0.00,weatherlink.com 1.10,2013-05-28 06:16:00,
2013-05-28 02:31:00,-999.0,-99.9,26.57,North,-999,-999.0,-999.0,-999,0.00,,,0.00,weatherlink.com 1.10,2013-05-28 06:31:00,
2013-05-28 02:46:00,-999.0,-99.9,26.57,North,-999,-999.0,-999.0,-999,0.00,,,0.00,weatherlink.com 1.10,2013-05-28 06:46:00,
2013-05-28 03:01:00,-999.0,-99.9,26.56,North,-999,-999.0,-999.0,-999,0.00,,,0.00,weatherlink.com 1.10,2013-05-28 07:01:00,
2013-05-28 03:16:00,-999.0,-99.9,26.56,North,-999,-999.0,-999.0,-999,0.00,,,0.00,weatherlink.com 1.10,2013-05-28 07:16:00,
2013-05-28 03:31:00,-999.0,-99.9,26.56,North,-999,-999.0,-999.0,-999,0.00,,,0.00,weatherlink.com 1.10,2013-05-28 07:31:00,
2013-05-28 03:46:00,-999.0,-99.9,26.56,North,-999,-999.0,-999.0,-999,0.00,,,0.00,weatherlink.com 1.10,2013-05-28 07:46:00,
2013-05-28 04:01:00,-999.0,-99.9,26.55,North,-999,-999.0,-999.0,-999,0.00,,,0.00,weatherlink.com 1.10,2013-05-28 08:01:00,
2013-05-28 04:16:00,-999.0,-99.9,26.55,North,-999,-999.0,-999.0,-999,0.00,,,0.00,weatherlink.com 1.10,2013-05-28 08:16:00,
2013-05-28 04:31:00,-999.0,-99.9,26.55,North,-999,-999.0,-999.0,-999,0.00,,,0.00,weatherlink.com 1.10,2013-05-28 08:31:00,
2013-05-28 04:46:00,-999.0,-99.9,26.55,North,-999,-999.0,-999.0,-999,0.00,,,0.00,weatherlink.com 1.10,2013-05-28 08:46:00,
2013-05-28 05:01:00,-999.0,-99.9,26.55,North,-999,-999.0,-999.0,-999,0.00,,,0.00,weatherlink.com 1.10,2013-05-28 09:01:00,
2013-05-28 05:16:00,-999.0,-99.9,26.55,North,-999,-999.0,-999.0,-999,0.00,,,0.00,weatherlink.com 1.10,2013-05-28 09:16:00,
2013-05-28 05:32:00,-999.0,-99.9,26.56,North,-999,-999.0,-999.0,-999,0.00,,,0.00,weatherlink.com 1.10,2013-05-28 09:32:00,
2013-05-28 05:47:00,-999.0,-99.9,26.57,North,-999,-999.0,-999.0,-999,0.00,,,0.00,weatherlink.com 1.10,2013-05-28 09:47:00,
2013-05-28 06:02:00,-999.0,-99.9,26.58,North,-999,-999.0,-999.0,-999,0.00,,,0.00,weatherlink.com 1.10,2013-05-28 10:02:00,
2013-05-28 06:17:00,-999.0,-99.9,26.58,North,-999,-999.0,-999.0,-999,0.00,,,0.00,weatherlink.com 1.10,2013-05-28 10:17:00,
2013-05-28 06:32:00,-999.0,-99.9,26.59,North,-999,-999.0,-999.0,-999,0.00,,,0.00,weatherlink.com 1.10,2013-05-28 10:32:00,
2013-05-28 06:47:00,-999.0,-99.9,26.58,North,-999,-999.0,-999.0,-999,0.00,,,0.00,weatherlink.com 1.10,2013-05-28 10:47:00,
2013-05-28 07:02:00,51.4,50.0,26.59,SSW,192,0.0,2.0,95,0.00,,,0.00,weatherlink.com 1.10,2013-05-28 11:02:00,
2013-05-28 07:17:00,51.7,50.0,26.59,SSW,192,0.0,2.0,95,0.00,,,0.00,weatherlink.com 1.10,2013-05-28 11:17:00,
2013-05-28 07:32:00,52.5,51.0,26.60,SSW,192,0.0,2.0,95,0.00,,,0.00,weatherlink.com 1.10,2013-05-28 11:32:00,
2013-05-28 07:47:00,52.6,51.0,26.60,SSW,192,0.0,1.0,95,0.00,,,0.00,weatherlink.com 1.10,2013-05-28 11:47:00,
2013-05-28 08:02:00,53.5,52.0,26.60,SSW,192,0.0,3.0,95,0.00,,,0.00,weatherlink.com 1.10,2013-05-28 12:02:00,
2013-05-28 08:17:00,55.3,54.0,26.60,SSW,192,0.0,1.0,95,0.00,,,0.00,weatherlink.com 1.10,2013-05-28 12:17:00,
2013-05-28 08:32:00,57.0,55.0,26.60,SSW,192,0.0,0.0,94,0.00,,,0.00,weatherlink.com 1.10,2013-05-28 12:32:00,
2013-05-28 08:47:00,58.9,57.0,26.60,SSW,192,0.0,2.0,92,0.00,,,0.00,weatherlink.com 1.10,2013-05-28 12:47:00,
2013-05-28 09:02:00,60.1,56.0,26.61,SSW,192,0.0,0.0,87,0.00,,,0.00,weatherlink.com 1.10,2013-05-28 13:02:00,
2013-05-28 09:17:00,62.9,57.0,26.61,SSW,192,0.0,0.0,80,0.00,,,0.00,weatherlink.com 1.10,2013-05-28 13:17:00,
2013-05-28 09:32:00,65.2,56.0,26.61,SSW,192,0.0,3.0,72,0.00,,,0.00,weatherlink.com 1.10,2013-05-28 13:32:00,
2013-05-28 09:48:00,65.6,56.0,26.61,SSW,192,4.0,6.0,71,0.00,,,0.00,weatherlink.com 1.10,2013-05-28 13:48:00,
2013-05-28 10:03:00,66.0,57.0,26.61,SSW,192,0.0,6.0,72,0.00,,,0.00,weatherlink.com 1.10,2013-05-28 14:03:00,
2013-05-28 10:18:00,67.3,55.0,26.61,West,271,4.0,7.0,64,0.00,,,0.00,weatherlink.com 1.10,2013-05-28 14:18:00,
2013-05-28 10:33:00,68.1,55.0,26.61,WSW,242,1.0,8.0,63,0.00,,,0.00,weatherlink.com 1.10,2013-05-28 14:33:00,
2013-05-28 10:48:00,67.8,55.0,26.61,SW,236,2.0,7.0,63,0.00,,,0.00,weatherlink.com 1.10,2013-05-28 14:48:00,
2013-05-28 11:03:00,67.8,55.0,26.61,WSW,238,0.0,7.0,64,0.00,,,0.00,weatherlink.com 1.10,2013-05-28 15:03:00,
2013-05-28 11:18:00,67.9,55.0,26.61,WSW,246,0.0,7.0,63,0.00,,,0.00,weatherlink.com 1.10,2013-05-28 15:18:00,
2013-05-28 11:33:00,68.1,55.0,26.61,SW,236,3.0,7.0,64,0.00,,,0.00,weatherlink.com 1.10,2013-05-28 15:33:00,
2013-05-28 11:48:00,69.4,55.0,26.61,SW,225,1.0,6.0,61,0.00,,,0.00,weatherlink.com 1.10,2013-05-28 15:48:00,
2013-05-28 12:03:00,69.8,56.0,26.61,SSW,194,0.0,10.0,61,0.00,,,0.00,weatherlink.com 1.10,2013-05-28 16:03:00,
2013-05-28 12:18:00,70.4,53.0,26.61,South,178,2.0,7.0,54,0.00,,,0.00,weatherlink.com 1.10,2013-05-28 16:18:00,
2013-05-28 12:33:00,70.9,53.0,26.60,SSW,205,8.0,10.0,53,0.00,,,0.00,weatherlink.com 1.10,2013-05-28 16:33:00,
2013-05-28 12:48:00,72.0,53.0,26.60,SSE,148,4.0,10.0,52,0.00,,,0.00,weatherlink.com 1.10,2013-05-28 16:48:00,
2013-05-28 13:03:00,71.6,57.0,26.60,SSE,149,1.0,6.0,61,0.00,,,0.00,weatherlink.com 1.10,2013-05-28 17:03:00,
2013-05-28 13:18:00,71.8,58.0,26.60,SSW,194,2.0,8.0,63,0.00,,,0.00,weatherlink.com 1.10,2013-05-28 17:18:00,
2013-05-28 13:33:00,71.3,59.0,26.59,SSW,199,16.0,18.0,65,0.00,,,0.00,weatherlink.com 1.10,2013-05-28 17:33:00,
2013-05-28 13:48:00,70.8,58.0,26.59,SE,138,1.0,12.0,65,0.00,,,0.00,weatherlink.com 1.10,2013-05-28 17:48:00,
2013-05-28 14:03:00,70.6,58.0,26.58,East,91,6.0,13.0,65,0.00,,,0.00,weatherlink.com 1.10,2013-05-28 18:03:00,
2013-05-28 14:18:00,70.4,58.0,26.59,South,178,8.0,10.0,66,0.00,,,0.00,weatherlink.com 1.10,2013-05-28 18:18:00,
2013-05-28 14:33:00,71.6,54.0,26.58,South,186,4.0,12.0,55,0.00,,,0.00,weatherlink.com 1.10,2013-05-28 18:33:00,
2013-05-28 14:48:00,71.8,57.0,26.58,SSW,211,8.0,14.0,60,0.00,,,0.00,weatherlink.com 1.10,2013-05-28 18:48:00,
2013-05-28 15:03:00,71.8,56.0,26.58,SSE,156,1.0,15.0,57,0.00,,,0.00,weatherlink.com 1.10,2013-05-28 19:03:00,
2013-05-28 15:18:00,72.7,56.0,26.57,SSW,211,7.0,17.0,56,0.00,,,0.00,weatherlink.com 1.10,2013-05-28 19:18:00,
2013-05-28 15:33:00,73.2,57.0,26.57,South,183,8.0,11.0,57,0.00,,,0.00,weatherlink.com 1.10,2013-05-28 19:33:00,
2013-05-28 15:48:00,71.6,57.0,26.57,South,172,4.0,15.0,60,0.00,,,0.00,weatherlink.com 1.10,2013-05-28 19:48:00,
2013-05-28 16:03:00,70.8,57.0,26.57,South,190,1.0,12.0,62,0.00,,,0.00,weatherlink.com 1.10,2013-05-28 20:03:00,
2013-05-28 16:18:00,71.6,56.0,26.57,SSW,196,12.0,13.0,59,0.00,,,0.00,weatherlink.com 1.10,2013-05-28 20:18:00,
2013-05-28 16:33:00,70.4,57.0,26.58,South,185,7.0,12.0,62,0.00,,,0.00,weatherlink.com 1.10,2013-05-28 20:33:00,
2013-05-28 16:48:00,70.3,57.0,26.57,SE,142,6.0,12.0,62,0.00,,,0.00,weatherlink.com 1.10,2013-05-28 20:48:00,
2013-05-28 17:03:00,71.5,57.0,26.57,SSW,198,4.0,10.0,61,0.00,,,0.00,weatherlink.com 1.10,2013-05-28 21:03:00,
2013-05-28 17:18:00,70.8,57.0,26.57,South,190,0.0,13.0,62,0.00,,,0.00,weatherlink.com 1.10,2013-05-28 21:18:00,
2013-05-28 17:33:00,69.6,57.0,26.57,SE,138,1.0,9.0,64,0.00,,,0.00,weatherlink.com 1.10,2013-05-28 21:33:00,
2013-05-28 17:48:00,69.4,57.0,26.57,South,185,5.0,12.0,65,0.00,,,0.00,weatherlink.com 1.10,2013-05-28 21:48:00,
2013-05-28 18:03:00,69.4,57.0,26.57,South,169,1.0,9.0,65,0.00,,,0.00,weatherlink.com 1.10,2013-05-28 22:03:00,
2013-05-28 18:18:00,68.9,57.0,26.57,SSE,168,3.0,9.0,66,0.00,,,0.00,weatherlink.com 1.10,2013-05-28 22:18:00,
2013-05-28 18:33:00,68.6,58.0,26.57,South,173,7.0,10.0,68,0.00,,,0.00,weatherlink.com 1.10,2013-05-28 22:33:00,
2013-05-28 18:48:00,68.1,57.0,26.57,SSE,163,2.0,11.0,67,0.00,,,0.00,weatherlink.com 1.10,2013-05-28 22:48:00,
2013-05-28 19:03:00,67.6,57.0,26.57,SSW,196,4.0,12.0,68,0.00,,,0.00,weatherlink.com 1.10,2013-05-28 23:03:00,
2013-05-28 19:18:00,66.9,57.0,26.57,SSE,163,3.0,10.0,70,0.00,,,0.00,weatherlink.com 1.10,2013-05-28 23:18:00,
2013-05-28 19:33:00,66.6,57.0,26.57,SSE,163,0.0,9.0,71,0.00,,,0.00,weatherlink.com 1.10,2013-05-28 23:33:00,
2013-05-28 19:48:00,66.3,57.0,26.57,South,185,2.0,7.0,71,0.00,,,0.00,weatherlink.com 1.10,2013-05-28 23:48:00,
2013-05-28 20:03:00,65.6,57.0,26.57,SSE,155,1.0,10.0,74,0.00,,,0.00,weatherlink.com 1.10,2013-05-29 00:03:00,
2013-05-28 20:18:00,-999.0,-99.9,26.57,North,-999,-999.0,-999.0,-999,0.00,,,0.00,weatherlink.com 1.10,2013-05-29 00:18:00,
2013-05-28 20:33:00,-999.0,-99.9,26.57,North,-999,-999.0,-999.0,-999,0.00,,,0.00,weatherlink.com 1.10,2013-05-29 00:33:00,
2013-05-28 20:48:00,-999.0,-99.9,26.57,North,-999,-999.0,-999.0,-999,0.00,,,0.00,weatherlink.com 1.10,2013-05-29 00:48:00,
2013-05-28 21:03:00,-999.0,-99.9,26.58,North,-999,-999.0,-999.0,-999,0.00,,,0.00,weatherlink.com 1.10,2013-05-29 01:03:00,
2013-05-28 21:19:00,-999.0,-99.9,26.57,North,-999,-999.0,-999.0,-999,0.00,,,0.00,weatherlink.com 1.10,2013-05-29 01:19:00,
2013-05-28 21:34:00,-999.0,-99.9,26.57,North,-999,-999.0,-999.0,-999,0.00,,,0.00,weatherlink.com 1.10,2013-05-29 01:34:00,
2013-05-28 21:49:00,-999.0,-99.9,26.58,North,-999,-999.0,-999.0,-999,0.00,,,0.00,weatherlink.com 1.10,2013-05-29 01:49:00,
2013-05-28 22:04:00,-999.0,-99.9,26.58,North,-999,-999.0,-999.0,-999,0.00,,,0.00,weatherlink.com 1.10,2013-05-29 02:04:00,
2013-05-28 22:19:00,-999.0,-99.9,26.58,North,-999,-999.0,-999.0,-999,0.00,,,0.00,weatherlink.com 1.10,2013-05-29 02:19:00,
2013-05-28 22:34:00,-999.0,-99.9,26.59,North,-999,-999.0,-999.0,-999,0.00,,,0.00,weatherlink.com 1.10,2013-05-29 02:34:00,
2013-05-28 22:49:00,-999.0,-99.9,26.59,North,-999,-999.0,-999.0,-999,0.00,,,0.00,weatherlink.com 1.10,2013-05-29 02:49:00,
2013-05-28 23:04:00,-999.0,-99.9,26.59,North,-999,-999.0,-999.0,-999,0.00,,,0.00,weatherlink.com 1.10,2013-05-29 03:04:00,
2013-05-28 23:19:00,-999.0,-99.9,26.59,North,-999,-999.0,-999.0,-999,0.00,,,0.00,weatherlink.com 1.10,2013-05-29 03:19:00,
2013-05-28 23:34:00,-999.0,-99.9,26.59,North,-999,-999.0,-999.0,-999,0.00,,,0.00,weatherlink.com 1.10,2013-05-29 03:34:00,
2013-05-28 23:49:00,-999.0,-99.9,26.59,North,-999,-999.0,-999.0,-999,0.00,,,0.00,weatherlink.com 1.10,2013-05-29 03:49:00,